Location: M?digepalle
(16.1753°N, 80.3496°E)
Time: 08:19:15
(UTC+00:00)

Cosmos 2180 Rocket - Pass Details

Date: 29 October 2020
Orbit: 953 x 1006 km, 82.9° (Epoch: 27 November)

Event Time Altitude Azimuth Distance (km) Brightness Sun altitude
Exits shadow 22:50:13 20° 349° (NNW) 2,051 6.0 -25.5°
Maximum altitude 22:54:35 73° 267° (W) 996 4.3 -24.5°
Drops below altitude 10° 23:00:40 10° 183° (S) 2,672 6.8 -23.1°
Sets 23:03:09 0° 181° (S) 3,615 7.6 -22.5°
